ID Time Temp Humidity Light PM2.5 PM10 Voltage Extra Firmware Position Fcnt TTN version Gateways Distance RSSI LSNR Radiosettings
2026-05-08 21:33:09 9.75°C 112.688% 3.27V v3 No position 8087 ttn.v3 - -107 5 867.1MHz, SF9BW125, 4/5CR
2026-05-08 21:16:59 9.9375°C 88.1875% 3.27V v3 No position 8086 ttn.v3 - -101 -8 868.5MHz, SF9BW125, 4/5CR
- -113 -9.75 868.5MHz, SF9BW125, 4/5CR
- -122 -11.25 868.5MHz, SF9BW125, 4/5CR
2026-05-08 21:00:49 9.9375°C 92.5625% 3.27V v3 No position 8085 ttn.v3 - -103 6.8 867.9MHz, SF9BW125, 4/5CR
2026-05-08 20:44:39 9.75°C 9.75% 3.27V v3 No position 8084 ttn.v3 - -99 -9.5 868.3MHz, SF9BW125, 4/5CR
2026-05-08 20:28:29 9.8125°C 5.375% 3.27V v3 No position 8083 ttn.v3 - -104 3.5 867.7MHz, SF9BW125, 4/5CR
- -114 -10.5 867.7MHz, SF9BW125, 4/5CR
2026-05-08 20:12:19 9.6875°C 12.25% 3.27V v3 No position 8082 ttn.v3 - -105 2.2 868.1MHz, SF9BW125, 4/5CR
2026-05-08 19:56:09 9.5625°C -1.75% 3.27V v3 No position 8081 ttn.v3 - -101 -6.8 867.5MHz, SF9BW125, 4/5CR
2026-05-08 19:39:59 9.5°C -2.875% 3.27V v3 No position 8080 ttn.v3 - -103 -1.8 868.5MHz, SF9BW125, 4/5CR
2026-05-08 19:23:50 9.75°C 97.125% 3.27V v3 No position 8079 ttn.v3 - -99 -0.8 867.3MHz, SF9BW125, 4/5CR
2026-05-08 19:07:40 9.875°C 109.25% 3.27V v3 No position 8078 ttn.v3 - -105 -7.8 868.3MHz, SF9BW125, 4/5CR
2026-05-08 18:51:30 10°C 115.062% 3.27V v3 No position 8077 ttn.v3 - -107 4.5 867.1MHz, SF9BW125, 4/5CR
2026-05-08 18:35:20 10°C -3.625% 3.27V v3 No position 8076 ttn.v3 - -120 -7.75 868.1MHz, SF9BW125, 4/5CR
- -105 -8 868.1MHz, SF9BW125, 4/5CR
2026-05-08 18:19:10 10.125°C 0.125% 3.27V v3 No position 8075 ttn.v3 - -101 6 867.9MHz, SF9BW125, 4/5CR
2026-05-08 18:03:00 10.25°C 112.125% 3.27V v3 No position 8074 ttn.v3 - -107 1 868.5MHz, SF9BW125, 4/5CR
- -111 -0.75 868.5MHz, SF9BW125, 4/5CR
2026-05-08 17:46:49 10.375°C 109.625% 3.27V v3 No position 8073 ttn.v3 - -100 -2 867.7MHz, SF9BW125, 4/5CR
- -117 -7.25 867.7MHz, SF9BW125, 4/5CR
2026-05-08 17:30:39 11.25°C -5.125% 3.27V v3 No position 8072 ttn.v3 - -105 0.5 868.3MHz, SF9BW125, 4/5CR
2026-05-08 17:14:29 11.375°C 10.0625% 3.27V v3 No position 8071 ttn.v3 - -105 3 867.5MHz, SF9BW125, 4/5CR
2026-05-08 16:58:18 11.1875°C -0.6875% 3.27V v3 No position 8070 ttn.v3 - -110 1 868.1MHz, SF9BW125, 4/5CR
2026-05-08 16:42:08 10.625°C -2.1875% 3.27V v3 No position 8069 ttn.v3 - -104 7 867.3MHz, SF9BW125, 4/5CR
- -121 -10.75 867.3MHz, SF9BW125, 4/5CR
- -117 -11 867.3MHz, SF9BW125, 4/5CR
2026-05-08 16:25:58 10.375°C 105.75% 3.27V v3 No position 8068 ttn.v3 - -109 -9 868.5MHz, SF9BW125, 4/5CR
- -112 -13.5 868.5MHz, SF9BW125, 4/5CR
2026-05-08 16:09:48 10.1875°C 118.125% 3.27V v3 No position 8067 ttn.v3 - -101 3 867.1MHz, SF9BW125, 4/5CR
- -118 -5.75 867.1MHz, SF9BW125, 4/5CR
- -121 -6.25 867.1MHz, SF9BW125, 4/5CR
2026-05-08 15:53:38 10.0625°C 111% 3.27V v3 No position 8066 ttn.v3 - -116 -5.25 868.3MHz, SF9BW125, 4/5CR
- -98 -10.5 868.3MHz, SF9BW125, 4/5CR
2026-05-08 15:37:27 10.0625°C 100.938% 3.27V v3 No position 8065 ttn.v3 - -103 9.5 867.9MHz, SF9BW125, 4/5CR
- -116 -9.25 867.9MHz, SF9BW125, 4/5CR
2026-05-08 15:23:28 10°C -1% 3.27V v3 No position 8064 ttn.v3 - -101 3.2 868.1MHz, SF12BW125, 4/5CR
- -114 -14.75 868.1MHz, SF12BW125, 4/5CR
- -121 -18.5 868.1MHz, SF12BW125, 4/5CR
2026-05-08 15:05:15 10°C 4.9375% 3.27V v3 No position 8063 ttn.v3 - -103 8.8 867.7MHz, SF9BW125, 4/5CR
- -115 -5.75 867.7MHz, SF9BW125, 4/5CR
2026-05-08 14:49:05 10.3125°C 10.125% 3.27V v3 No position 8062 ttn.v3 - -104 3.2 868.5MHz, SF9BW125, 4/5CR
- -124 -12.75 868.5MHz, SF9BW125, 4/5CR
2026-05-08 14:32:55 10.75°C -4.9375% 3.27V v3 No position 8061 ttn.v3 - -99 5 867.5MHz, SF9BW125, 4/5CR
- -110 -9.75 867.5MHz, SF9BW125, 4/5CR
2026-05-08 14:16:44 11.125°C 100.875% 3.27V v3 No position 8060 ttn.v3 - -97 -1 868.3MHz, SF9BW125, 4/5CR
2026-05-08 14:00:34 11.5625°C 87.3125% 3.27V v3 No position 8059 ttn.v3 - -98 8.8 867.3MHz, SF9BW125, 4/5CR
2026-05-08 13:44:23 11.6875°C 82.5% 3.27V v3 No position 8058 ttn.v3 - -105 6.2 868.1MHz, SF9BW125, 4/5CR
- -110 -10.25 868.1MHz, SF9BW125, 4/5CR
2026-05-08 13:28:12 11.5°C 84.3125% 3.27V v3 No position 8057 ttn.v3 - -105 9.2 867.1MHz, SF9BW125, 4/5CR
- -116 -3.5 867.1MHz, SF9BW125, 4/5CR
- -122 -6.75 867.1MHz, SF9BW125, 4/5CR
2026-05-08 13:12:02 11.9375°C 81.375% 3.27V v3 No position 8056 ttn.v3 - -98 4.2 868.5MHz, SF9BW125, 4/5CR
2026-05-08 12:55:51 11.8125°C 78% 3.27V v3 No position 8055 ttn.v3 - -101 2.5 867.9MHz, SF9BW125, 4/5CR
2026-05-08 12:39:40 12.8125°C 69.8125% 3.27V v3 No position 8054 ttn.v3 - -99 7.2 868.3MHz, SF9BW125, 4/5CR
2026-05-08 12:23:29 13.5°C 66.75% 3.27V v3 No position 8053 ttn.v3 - -105 1 867.7MHz, SF9BW125, 4/5CR
2026-05-08 12:07:18 12.5°C 66.125% 3.27V v3 No position 8052 ttn.v3 - -103 -0.2 868.1MHz, SF9BW125, 4/5CR
2026-05-08 11:51:07 12.0625°C 65.4375% 3.27V v3 No position 8051 ttn.v3 - -105 2.5 867.5MHz, SF9BW125, 4/5CR
2026-05-08 11:34:56 12.0625°C 71.4375% 3.27V v3 No position 8050 ttn.v3 - -107 -4.8 868.5MHz, SF9BW125, 4/5CR
- -119 -8 868.5MHz, SF9BW125, 4/5CR
2026-05-08 11:18:46 11.625°C 68.875% 3.27V v3 No position 8049 ttn.v3 - -109 -6 867.3MHz, SF9BW125, 4/5CR
- -124 -10.75 867.3MHz, SF9BW125, 4/5CR
2026-05-08 11:02:35 11.5°C 72.0625% 3.27V v3 No position 8048 ttn.v3 - -105 2.2 868.3MHz, SF9BW125, 4/5CR
- -114 -6.25 868.3MHz, SF9BW125, 4/5CR
2026-05-08 10:46:25 10.9375°C 78.9375% 3.27V v3 No position 8047 ttn.v3 - -105 4.2 867.1MHz, SF9BW125, 4/5CR
- -116 -12.25 867.1MHz, SF9BW125, 4/5CR
2026-05-08 10:30:15 10.5625°C 82.625% 3.27V v3 No position 8046 ttn.v3 - -106 -10.5 868.1MHz, SF9BW125, 4/5CR
2026-05-08 10:14:05 10.375°C 78.8125% 3.27V v3 No position 8045 ttn.v3 - -107 6 867.9MHz, SF9BW125, 4/5CR
- -119 -6.25 867.9MHz, SF9BW125, 4/5CR
2026-05-08 09:57:54 10.0625°C 78.4375% 3.27V v3 No position 8044 ttn.v3 - -110 -3 868.5MHz, SF9BW125, 4/5CR
- -98 -4.8 868.5MHz, SF9BW125, 4/5CR
- -109 -11.25 868.5MHz, SF9BW125, 4/5CR
2026-05-08 09:41:44 9.8125°C 78.375% 3.27V v3 No position 8043 ttn.v3 - -113 -12 867.7MHz, SF9BW125, 4/5CR
2026-05-08 09:25:35 9.5625°C 83.375% 3.27V v3 No position 8042 ttn.v3 - -99 -2.5 868.3MHz, SF9BW125, 4/5CR
2026-05-08 09:09:25 9.25°C 85.4375% 3.27V v3 No position 8041 ttn.v3 - -103 -3.8 867.5MHz, SF9BW125, 4/5CR
- -111 -13.25 867.5MHz, SF9BW125, 4/5CR
2026-05-08 08:37:06 8.625°C -0.25% 3.27V v3 No position 8039 ttn.v3 - -99 9.5 867.3MHz, SF9BW125, 4/5CR
2026-05-08 08:20:56 8.1875°C 9% 3.27V v3 No position 8038 ttn.v3 - -103 7.8 868.5MHz, SF9BW125, 4/5CR
2026-05-08 08:04:47 7.6875°C 6.8125% 3.27V v3 No position 8037 ttn.v3 - -101 8.2 867.1MHz, SF9BW125, 4/5CR
2026-05-08 07:48:37 7.375°C 116.125% 3.27V v3 No position 8036 ttn.v3 - -96 0.8 868.3MHz, SF9BW125, 4/5CR
- -114 -4.5 868.3MHz, SF9BW125, 4/5CR
2026-05-08 07:32:28 7.0625°C 107.125% 3.27V v3 No position 8035 ttn.v3 - -103 10 867.9MHz, SF9BW125, 4/5CR
- -127 -11.5 867.9MHz, SF9BW125, 4/5CR
2026-05-08 07:16:19 6.8125°C 98.1875% 3.27V v3 No position 8034 ttn.v3 - -98 6.8 868.1MHz, SF9BW125, 4/5CR
- -115 -8.25 868.1MHz, SF9BW125, 4/5CR
2026-05-08 07:00:10 6.625°C 90.5% 3.27V v3 No position 8033 ttn.v3 - -101 7.2 867.7MHz, SF9BW125, 4/5CR
- -116 -5.5 867.7MHz, SF9BW125, 4/5CR
- -111 -11.5 867.7MHz, SF9BW125, 4/5CR
- -116 -16 867.7MHz, SF9BW125, 4/5CR
2026-05-08 06:44:01 6.5°C 95.125% 3.27V v3 No position 8032 ttn.v3 - -101 8 868.5MHz, SF9BW125, 4/5CR
2026-05-08 06:27:52 6.5°C 101.625% 3.27V v3 No position 8031 ttn.v3 - -99 6 867.5MHz, SF9BW125, 4/5CR
2026-05-08 06:11:43 6.4375°C 112.812% 3.27V v3 No position 8030 ttn.v3 - -98 2 868.3MHz, SF9BW125, 4/5CR
2026-05-08 05:55:34 6.4375°C -2.6875% 3.27V v3 No position 8029 ttn.v3 - -99 10.8 867.3MHz, SF9BW125, 4/5CR
2026-05-08 05:39:25 6.5°C 4.8125% 3.27V v3 No position 8028 ttn.v3 - -99 8.5 868.1MHz, SF9BW125, 4/5CR
- -117 -6.5 868.1MHz, SF9BW125, 4/5CR
- -113 -9 868.1MHz, SF9BW125, 4/5CR
2026-05-08 05:23:16 6.6875°C 8.9375% 3.27V v3 No position 8027 ttn.v3 - -103 8.8 867.1MHz, SF9BW125, 4/5CR
- -124 -9.25 867.1MHz, SF9BW125, 4/5CR
2026-05-08 05:07:07 6.875°C 11.6875% 3.27V v3 No position 8026 ttn.v3 - -103 8.2 868.5MHz, SF9BW125, 4/5CR
2026-05-08 04:50:58 7.0625°C 8.0625% 3.27V v3 No position 8025 ttn.v3 - -103 10.2 867.9MHz, SF9BW125, 4/5CR
- -115 -8.25 867.9MHz, SF9BW125, 4/5CR
2026-05-08 04:34:48 7.25°C 116.25% 3.27V v3 No position 8024 ttn.v3 - -99 3.2 868.3MHz, SF9BW125, 4/5CR
2026-05-08 04:18:39 7.3125°C -4.5625% 3.27V v3 No position 8023 ttn.v3 - -103 9.5 867.7MHz, SF9BW125, 4/5CR
- -116 -12 867.7MHz, SF9BW125, 4/5CR
2026-05-08 04:02:30 7.4375°C 1.5% 3.27V v3 No position 8022 ttn.v3 - -99 9.5 868.1MHz, SF9BW125, 4/5CR
- -113 -8.5 868.1MHz, SF9BW125, 4/5CR
- -120 -9.5 868.1MHz, SF9BW125, 4/5CR
2026-05-08 03:46:21 7.625°C 115.375% 3.27V v3 No position 8021 ttn.v3 - -97 7 867.5MHz, SF9BW125, 4/5CR
2026-05-08 03:30:11 7.625°C 3.5625% 3.27V v3 No position 8020 ttn.v3 - -99 -0.8 868.5MHz, SF9BW125, 4/5CR
- -115 -8 868.5MHz, SF9BW125, 4/5CR
2026-05-08 03:14:02 7.5625°C 11.5% 3.27V v3 No position 8019 ttn.v3 - -95 10 867.3MHz, SF9BW125, 4/5CR
2026-05-08 02:57:53 7.4375°C -1.875% 3.27V v3 No position 8018 ttn.v3 - -98 9.2 868.3MHz, SF9BW125, 4/5CR
- -121 -12 868.3MHz, SF9BW125, 4/5CR
2026-05-08 02:41:43 7.4375°C 111.312% 3.27V v3 No position 8017 ttn.v3 - -103 9.5 867.1MHz, SF9BW125, 4/5CR
- -110 0 867.1MHz, SF9BW125, 4/5CR
- -121 -7.5 867.1MHz, SF9BW125, 4/5CR
2026-05-08 02:25:34 7.3125°C 99.125% 3.27V v3 No position 8016 ttn.v3 - -103 7.8 868.1MHz, SF9BW125, 4/5CR
- -115 -9 868.1MHz, SF9BW125, 4/5CR
2026-05-08 02:09:25 7.25°C 89.25% 3.27V v3 No position 8015 ttn.v3 - -99 4.5 867.9MHz, SF9BW125, 4/5CR
- -127 -11.5 867.9MHz, SF9BW125, 4/5CR
- -124 -11.5 867.9MHz, SF9BW125, 4/5CR
2026-05-08 01:53:16 7.0625°C 78.4375% 3.27V v3 No position 8014 ttn.v3 - -110 -5 868.5MHz, SF9BW125, 4/5CR
2026-05-08 01:37:07 7°C 78.4375% 3.27V v3 No position 8013 ttn.v3 - -103 9.2 867.7MHz, SF9BW125, 4/5CR
- -123 -10.5 867.7MHz, SF9BW125, 4/5CR
- -128 -12 867.7MHz, SF9BW125, 4/5CR
- -112 -12.25 867.7MHz, SF9BW125, 4/5CR
2026-05-08 01:20:57 6.8125°C 71.9375% 3.27V v3 No position 8012 ttn.v3 - -97 3.5 868.3MHz, SF9BW125, 4/5CR
2026-05-08 01:04:48 6.6875°C 52.25% 3.27V v3 No position 8011 ttn.v3 - -99 7 867.5MHz, SF9BW125, 4/5CR
2026-05-08 00:48:39 6.8125°C 53.5% 3.27V v3 No position 8010 ttn.v3 - -101 8.5 868.1MHz, SF9BW125, 4/5CR
- -120 -7.75 868.1MHz, SF9BW125, 4/5CR
2026-05-08 00:32:30 6.8125°C 61.9375% 3.27V v3 No position 8009 ttn.v3 - -97 3.2 867.3MHz, SF9BW125, 4/5CR
- -122 -12 867.3MHz, SF9BW125, 4/5CR
2026-05-08 00:16:21 6.75°C 59.0625% 3.27V v3 No position 8008 ttn.v3 - -103 7 868.5MHz, SF9BW125, 4/5CR
- -112 -2.75 868.5MHz, SF9BW125, 4/5CR
- -121 -8.75 868.5MHz, SF9BW125, 4/5CR
2026-05-08 00:00:12 6.875°C 61.8125% 3.27V v3 No position 8007 ttn.v3 - -103 9.2 867.1MHz, SF9BW125, 4/5CR
- -115 -3.5 867.1MHz, SF9BW125, 4/5CR
- -120 -5.5 867.1MHz, SF9BW125, 4/5CR
2026-05-07 23:44:03 7.0625°C 66.625% 3.27V v3 No position 8006 ttn.v3 - -97 8 868.3MHz, SF9BW125, 4/5CR
2026-05-07 23:27:54 7.1875°C 69.5625% 3.27V v3 No position 8005 ttn.v3 - -101 9.2 867.9MHz, SF9BW125, 4/5CR
- -127 -11.5 867.9MHz, SF9BW125, 4/5CR
2026-05-07 23:11:45 7.25°C 68.8125% 3.27V v3 No position 8004 ttn.v3 - -110 -10.25 868.1MHz, SF9BW125, 4/5CR
2026-05-07 22:55:36 7.25°C 77.5625% 3.27V v3 No position 8003 ttn.v3 - -103 5.5 867.7MHz, SF9BW125, 4/5CR
- -114 -5.75 867.7MHz, SF9BW125, 4/5CR
2026-05-07 22:39:26 7.375°C 75.25% 3.27V v3 No position 8002 ttn.v3 - -97 7 868.5MHz, SF9BW125, 4/5CR
2026-05-07 22:23:17 7.8125°C 90.0625% 3.27V v3 No position 8001 ttn.v3 - -103 5.8 867.5MHz, SF9BW125, 4/5CR
2026-05-07 22:07:08 8°C 109.125% 3.27V v3 No position 8000 ttn.v3 - -98 8.5 868.3MHz, SF9BW125, 4/5CR
2026-05-07 21:50:58 8.0625°C 1.5% 3.27V v3 No position 7999 ttn.v3 - -99 8.5 867.3MHz, SF9BW125, 4/5CR
2026-05-07 21:34:48 8.3125°C 6.25% 3.27V v3 No position 7998 ttn.v3 - -99 -1 868.1MHz, SF9BW125, 4/5CR
2026-05-07 21:18:39 8.9375°C 9.6875% 3.27V v3 No position 7997 ttn.v3 - -105 8 867.1MHz, SF9BW125, 4/5CR
- -120 -5.75 867.1MHz, SF9BW125, 4/5CR
2026-05-07 21:02:29 10.125°C 10.75% 3.27V v3 No position 7996 ttn.v3 - -101 6.2 868.5MHz, SF9BW125, 4/5CR
- -113 -5.25 868.5MHz, SF9BW125, 4/5CR
- -115 -9 868.5MHz, SF9BW125, 4/5CR
- -125 -11.25 868.5MHz, SF9BW125, 4/5CR
2026-05-07 20:46:19 10.75°C 7.8125% 3.27V v3 No position 7995 ttn.v3 - -103 7.8 867.9MHz, SF9BW125, 4/5CR
2026-05-07 20:30:08 12.0625°C 108.625% 3.27V v3 No position 7994 ttn.v3 - -99 7 868.3MHz, SF9BW125, 4/5CR
2026-05-07 20:13:57 13.375°C 84.5% 3.27V v3 No position 7993 ttn.v3 - -99 3.2 867.7MHz, SF9BW125, 4/5CR
2026-05-07 19:57:46 13°C 88.3125% 3.27V v3 No position 7992 ttn.v3 - -98 7 868.1MHz, SF9BW125, 4/5CR
2026-05-07 19:41:35 12.75°C 85.9375% 3.27V v3 No position 7991 ttn.v3 - -98 0 867.5MHz, SF9BW125, 4/5CR
- -97 -8.75 867.5MHz, SF9BW125, 4/5CR
- -109 -12.25 867.5MHz, SF9BW125, 4/5CR
2026-05-07 19:25:24 12.875°C 86.5% 3.27V v3 No position 7990 ttn.v3 - -103 5.8 868.5MHz, SF9BW125, 4/5CR
- -112 -6 868.5MHz, SF9BW125, 4/5CR
- -120 -11.75 868.5MHz, SF9BW125, 4/5CR
2026-05-07 19:09:12 14.3125°C 76.75% 3.27V v3 No position 7989 ttn.v3 - -99 7 867.3MHz, SF9BW125, 4/5CR
- -124 -8 867.3MHz, SF9BW125, 4/5CR
2026-05-07 18:53:01 14.4375°C 74.4375% 3.27V v3 No position 7988 ttn.v3 - -96 7.5 868.3MHz, SF9BW125, 4/5CR
2026-05-07 18:36:50 14°C 75.9375% 3.27V v3 No position 7987 ttn.v3 - -103 5 867.1MHz, SF9BW125, 4/5CR
- -120 -5 867.1MHz, SF9BW125, 4/5CR
2026-05-07 18:20:38 13.75°C 79.3125% 3.27V v3 No position 7986 ttn.v3 - -98 1.5 868.1MHz, SF9BW125, 4/5CR
- -118 -6.75 868.1MHz, SF9BW125, 4/5CR
2026-05-07 18:04:27 13.5625°C 76.6875% 3.27V v3 No position 7985 ttn.v3 - -101 10 867.9MHz, SF9BW125, 4/5CR
- -121 -5.75 867.9MHz, SF9BW125, 4/5CR
2026-05-07 17:48:16 13.25°C 84.625% 3.27V v3 No position 7984 ttn.v3 - -101 8 868.5MHz, SF9BW125, 4/5CR
- -119 -16.5 868.5MHz, SF9BW125, 4/5CR
2026-05-07 17:32:05 12.625°C 75.4375% 3.27V v3 No position 7983 ttn.v3 - -98 4.8 867.7MHz, SF9BW125, 4/5CR
- -113 -5.5 867.7MHz, SF9BW125, 4/5CR
- -123 -12.25 867.7MHz, SF9BW125, 4/5CR
2026-05-07 17:15:54 12.75°C 77.125% 3.27V v3 No position 7982 ttn.v3 - -99 7.2 868.3MHz, SF9BW125, 4/5CR
- -126 -15 868.3MHz, SF9BW125, 4/5CR
2026-05-07 16:59:43 13.125°C 72% 3.27V v3 No position 7981 ttn.v3 - -98 6.2 867.5MHz, SF9BW125, 4/5CR
2026-05-07 16:43:32 12.4375°C 72.4375% 3.27V v3 No position 7980 ttn.v3 - -103 8.2 868.1MHz, SF9BW125, 4/5CR
- -117 -5.5 868.1MHz, SF9BW125, 4/5CR
- -126 -11 868.1MHz, SF9BW125, 4/5CR
2026-05-07 16:27:21 12.5°C 74.5625% 3.27V v3 No position 7979 ttn.v3 - -96 7 867.3MHz, SF9BW125, 4/5CR
2026-05-07 16:11:10 12.3125°C 74.1875% 3.27V v3 No position 7978 ttn.v3 - -103 6.5 868.5MHz, SF9BW125, 4/5CR
- -114 -7.25 868.5MHz, SF9BW125, 4/5CR
- -119 -7.75 868.5MHz, SF9BW125, 4/5CR
2026-05-07 15:54:59 12°C 73.375% 3.27V v3 No position 7977 ttn.v3 - -101 8.2 867.1MHz, SF9BW125, 4/5CR
- -120 -8.75 867.1MHz, SF9BW125, 4/5CR
2026-05-07 15:38:48 13.25°C 66.875% 3.27V v3 No position 7976 ttn.v3 - -95 1.8 868.3MHz, SF9BW125, 4/5CR
2026-05-07 15:22:38 12.25°C 74.4375% 3.27V v3 No position 7975 ttn.v3 - -103 10 867.9MHz, SF9BW125, 4/5CR
- -120 -12.5 867.9MHz, SF9BW125, 4/5CR
- -124 -12.5 867.9MHz, SF9BW125, 4/5CR
2026-05-07 15:06:27 13°C 70.75% 3.27V v3 No position 7974 ttn.v3 - -101 8.8 868.1MHz, SF9BW125, 4/5CR
- -115 -8 868.1MHz, SF9BW125, 4/5CR
2026-05-07 14:50:16 13.625°C 69.6875% 3.27V v3 No position 7973 ttn.v3 - -99 1.5 867.7MHz, SF9BW125, 4/5CR
- -114 -6.25 867.7MHz, SF9BW125, 4/5CR
2026-05-07 14:34:04 13.75°C 65.8125% 3.27V v3 No position 7972 ttn.v3 - -98 7 868.5MHz, SF9BW125, 4/5CR
- -112 -4.75 868.5MHz, SF9BW125, 4/5CR
- -119 -6.5 868.5MHz, SF9BW125, 4/5CR
- -111 -11 868.5MHz, SF9BW125, 4/5CR
2026-05-07 14:17:54 12.8125°C 68.875% 3.27V v3 No position 7971 ttn.v3 - -99 6 867.5MHz, SF9BW125, 4/5CR
2026-05-07 14:01:43 11.625°C 76.375% 3.27V v3 No position 7970 ttn.v3 - -98 5.5 868.3MHz, SF9BW125, 4/5CR
- -113 -9.75 868.3MHz, SF9BW125, 4/5CR
2026-05-07 13:45:33 10.6875°C 84.8125% 3.27V v3 No position 7969 ttn.v3 - -101 0.2 867.3MHz, SF9BW125, 4/5CR
- -117 -5.25 867.3MHz, SF9BW125, 4/5CR
- -121 -8 867.3MHz, SF9BW125, 4/5CR
2026-05-07 13:31:33 10.1875°C 80.75% 3.27V v3 No position 7968 ttn.v3 - -105 2.5 868.1MHz, SF12BW125, 4/5CR
- -119 -11.5 868.1MHz, SF12BW125, 4/5CR
- -119 -16.75 868.1MHz, SF12BW125, 4/5CR
- -122 -16.75 868.1MHz, SF12BW125, 4/5CR
2026-05-07 13:13:20 12.875°C 68% 3.27V v3 No position 7967 ttn.v3 - -103 8.8 867.1MHz, SF9BW125, 4/5CR
- -120 -5.25 867.1MHz, SF9BW125, 4/5CR
- -117 -13.75 867.1MHz, SF9BW125, 4/5CR
2026-05-07 12:57:10 9.625°C 100.875% 3.27V v3 No position 7966 ttn.v3 - -103 -3.2 868.5MHz, SF9BW125, 4/5CR
- -111 -5.75 868.5MHz, SF9BW125, 4/5CR
- -120 -9.5 868.5MHz, SF9BW125, 4/5CR
2026-05-07 12:41:00 9.5°C 105.938% 3.27V v3 No position 7965 ttn.v3 - -99 6 867.9MHz, SF9BW125, 4/5CR
- -118 -6.75 867.9MHz, SF9BW125, 4/5CR
- -124 -9 867.9MHz, SF9BW125, 4/5CR
- -116 -9 867.9MHz, SF9BW125, 4/5CR
- -113 -11.75 867.9MHz, SF9BW125, 4/5CR
2026-05-07 12:24:50 9.625°C 81% 3.27V v3 No position 7964 ttn.v3 - -103 3.8 868.3MHz, SF9BW125, 4/5CR
2026-05-07 12:08:41 8.9375°C 115.562% 3.27V v3 No position 7963 ttn.v3 - -105 7.2 867.7MHz, SF9BW125, 4/5CR
- -122 -6.75 867.7MHz, SF9BW125, 4/5CR
- -115 -10.75 867.7MHz, SF9BW125, 4/5CR
- -113 -11.25 867.7MHz, SF9BW125, 4/5CR
- -125 -12.5 867.7MHz, SF9BW125, 4/5CR
2026-05-07 11:52:31 8.25°C 6.6875% 3.27V v3 No position 7962 ttn.v3 - -105 0.5 868.1MHz, SF9BW125, 4/5CR
2026-05-07 11:36:22 8.375°C 10.4375% 3.27V v3 No position 7961 ttn.v3 - -98 6.2 867.5MHz, SF9BW125, 4/5CR
- -115 -11.75 867.5MHz, SF9BW125, 4/5CR
2026-05-07 11:20:12 8.875°C 6.8125% 3.27V v3 No position 7960 ttn.v3 - -104 -5.2 868.5MHz, SF9BW125, 4/5CR
2026-05-07 11:04:02 9.3125°C 114.062% 3.27V v3 No position 7959 ttn.v3 - -104 5.2 867.3MHz, SF9BW125, 4/5CR
- -115 -6 867.3MHz, SF9BW125, 4/5CR
- -122 -7.25 867.3MHz, SF9BW125, 4/5CR
2026-05-07 10:47:53 9.6875°C 116.812% 3.27V v3 No position 7958 ttn.v3 - -105 -0.8 868.3MHz, SF9BW125, 4/5CR
2026-05-07 10:31:43 8.9375°C 9.9375% 3.27V v3 No position 7957 ttn.v3 - -101 -7.5 867.1MHz, SF9BW125, 4/5CR
- -122 -9.75 867.1MHz, SF9BW125, 4/5CR
2026-05-07 10:15:34 8.1875°C 9.1875% 3.27V v3 No position 7956 ttn.v3 - -113 -5 868.1MHz, SF9BW125, 4/5CR
2026-05-07 09:59:24 7.625°C 118.75% 3.27V v3 No position 7955 ttn.v3 - -111 0.8 867.9MHz, SF9BW125, 4/5CR
- -116 -10 867.9MHz, SF9BW125, 4/5CR
2026-05-07 09:43:15 7.1875°C 115.25% 3.27V v3 No position 7954 ttn.v3 - -111 -1 868.5MHz, SF9BW125, 4/5CR
- -120 -6.25 868.5MHz, SF9BW125, 4/5CR
2026-05-07 09:27:06 7.4375°C 1.8125% 3.27V v3 No position 7953 ttn.v3 - -103 7 867.7MHz, SF9BW125, 4/5CR
- -121 -6 867.7MHz, SF9BW125, 4/5CR
- -122 -9.25 867.7MHz, SF9BW125, 4/5CR
2026-05-07 09:10:57 7.3125°C 112.312% 3.27V v3 No position 7952 ttn.v3 - -115 -6.75 868.3MHz, SF9BW125, 4/5CR
- -109 -8.8 868.3MHz, SF9BW125, 4/5CR
2026-05-07 08:54:48 6.75°C 97.1875% 3.27V v3 No position 7951 ttn.v3 - -101 6.5 867.5MHz, SF9BW125, 4/5CR
- -122 -12.5 867.5MHz, SF9BW125, 4/5CR
2026-05-07 08:38:39 6.0625°C 73.875% 3.27V v3 No position 7950 ttn.v3 - -103 8.2 868.1MHz, SF9BW125, 4/5CR
- -114 -3 868.1MHz, SF9BW125, 4/5CR
- -128 -13 868.1MHz, SF9BW125, 4/5CR
2026-05-07 08:22:30 5.625°C 46.3125% 3.27V v3 No position 7949 ttn.v3 - -103 6.2 867.3MHz, SF9BW125, 4/5CR
- -123 -12.25 867.3MHz, SF9BW125, 4/5CR
2026-05-07 08:06:21 5.4375°C 33.125% 3.27V v3 No position 7948 ttn.v3 - -102 6.8 868.5MHz, SF9BW125, 4/5CR
- -113 -7.5 868.5MHz, SF9BW125, 4/5CR
2026-05-07 07:50:13 5.4375°C 28.0625% 3.27V v3 No position 7947 ttn.v3 - -103 7.5 867.1MHz, SF9BW125, 4/5CR
- -119 -3.75 867.1MHz, SF9BW125, 4/5CR
2026-05-07 07:34:04 5.1875°C 13.8125% 3.27V v3 No position 7946 ttn.v3 - -99 6.2 868.3MHz, SF9BW125, 4/5CR
2026-05-07 07:17:55 5.0625°C 12.375% 3.27V v3 No position 7945 ttn.v3 - -103 8.2 867.9MHz, SF9BW125, 4/5CR
- -112 -8.75 867.9MHz, SF9BW125, 4/5CR
- -126 -15 867.9MHz, SF9BW125, 4/5CR
2026-05-07 07:01:47 4.875°C 2.6875% 3.27V v3 No position 7944 ttn.v3 - -103 9 868.1MHz, SF9BW125, 4/5CR
2026-05-07 06:45:38 4.6875°C -5.75% 3.27V v3 No position 7943 ttn.v3 - -109 5 867.7MHz, SF9BW125, 4/5CR
2026-05-07 06:13:22 4.125°C 103.5% 3.27V v3 No position 7941 ttn.v3 - -103 0.5 867.5MHz, SF9BW125, 4/5CR
2026-05-07 05:57:13 3.875°C 95.1875% 3.27V v3 No position 7940 ttn.v3 - -98 6.8 868.3MHz, SF9BW125, 4/5CR
2026-05-07 05:41:06 3.6875°C 93% 3.27V v3 No position 7939 ttn.v3 - -105 8 867.3MHz, SF9BW125, 4/5CR
2026-05-07 05:24:57 3.75°C 94.5% 3.27V v3 No position 7938 ttn.v3 - -104 8.2 868.1MHz, SF9BW125, 4/5CR
2026-05-07 05:08:49 3.875°C 101.25% 3.27V v3 No position 7937 ttn.v3 - -105 8.5 867.1MHz, SF9BW125, 4/5CR
- -121 -10.25 867.1MHz, SF9BW125, 4/5CR
2026-05-07 04:52:41 4°C 105.562% 3.27V v3 No position 7936 ttn.v3 - -103 0.2 868.5MHz, SF9BW125, 4/5CR
- -112 -9.25 868.5MHz, SF9BW125, 4/5CR
2026-05-07 04:36:33 4.1875°C 111% 3.27V v3 No position 7935 ttn.v3 - -104 2.2 867.9MHz, SF9BW125, 4/5CR
- -117 -10.25 867.9MHz, SF9BW125, 4/5CR
2026-05-07 04:20:24 4.25°C 114.875% 3.27V v3 No position 7934 ttn.v3 - -99 5.2 868.3MHz, SF9BW125, 4/5CR
2026-05-07 04:04:16 4.3125°C 114.938% 3.27V v3 No position 7933 ttn.v3 - -103 8.5 867.7MHz, SF9BW125, 4/5CR
2026-05-07 03:48:08 4.625°C -3.625% 3.27V v3 No position 7932 ttn.v3 - -103 2.5 868.1MHz, SF9BW125, 4/5CR
2026-05-07 03:31:59 4.8125°C 1.125% 3.27V v3 No position 7931 ttn.v3 - -103 7.2 867.5MHz, SF9BW125, 4/5CR
- -115 -12 867.5MHz, SF9BW125, 4/5CR
2026-05-07 03:15:51 4.8125°C -0.125% 3.27V v3 No position 7930 ttn.v3 - -101 7 868.5MHz, SF9BW125, 4/5CR
2026-05-07 02:59:43 4.8125°C -1.0625% 3.27V v3 No position 7929 ttn.v3 - -99 3.2 867.3MHz, SF9BW125, 4/5CR
2026-05-07 02:43:34 4.6875°C 2.25% 3.27V v3 No position 7928 ttn.v3 - -99 0.8 868.3MHz, SF9BW125, 4/5CR
- -113 -4.5 868.3MHz, SF9BW125, 4/5CR
2026-05-07 02:27:26 4.6875°C -0.6875% 3.27V v3 No position 7927 ttn.v3 - -109 1.5 867.1MHz, SF9BW125, 4/5CR
2026-05-07 02:11:17 4.625°C 100.812% 3.27V v3 No position 7926 ttn.v3 - -99 8.8 868.1MHz, SF9BW125, 4/5CR
2026-05-07 01:55:09 4.5°C 99.875% 3.27V v3 No position 7925 ttn.v3 - -103 9 867.9MHz, SF9BW125, 4/5CR
- -114 -13.75 867.9MHz, SF9BW125, 4/5CR
2026-05-07 01:39:01 4.5625°C 105.75% 3.27V v3 No position 7924 ttn.v3 - -104 -1.8 868.5MHz, SF9BW125, 4/5CR
- -111 -12.75 868.5MHz, SF9BW125, 4/5CR
2026-05-07 01:22:52 4.6875°C 102.938% 3.27V v3 No position 7923 ttn.v3 - -113 -13.5 867.7MHz, SF9BW125, 4/5CR
2026-05-07 01:06:44 4.75°C 100.062% 3.27V v3 No position 7922 ttn.v3 - -99 -0.2 868.3MHz, SF9BW125, 4/5CR
2026-05-07 00:50:35 4.75°C 101.375% 3.27V v3 No position 7921 ttn.v3 - -104 6.5 867.5MHz, SF9BW125, 4/5CR
- -109 -13.75 867.5MHz, SF9BW125, 4/5CR
2026-05-07 00:34:27 4.625°C 90.5% 3.27V v3 No position 7920 ttn.v3 - -105 8.2 868.1MHz, SF9BW125, 4/5CR
- -122 -11.5 868.1MHz, SF9BW125, 4/5CR
- -128 -13 868.1MHz, SF9BW125, 4/5CR
2026-05-07 00:18:18 4.9375°C 114.938% 3.27V v3 No position 7919 ttn.v3 - -99 1.2 867.3MHz, SF9BW125, 4/5CR
2026-05-07 00:02:10 4.9375°C 112.938% 3.27V v3 No position 7918 ttn.v3 - -105 5.5 868.5MHz, SF9BW125, 4/5CR
- -112 -5.25 868.5MHz, SF9BW125, 4/5CR
- -111 -11 868.5MHz, SF9BW125, 4/5CR
2026-05-06 23:46:01 5.1875°C 7.5625% 3.27V v3 No position 7917 ttn.v3 - -101 -1 867.1MHz, SF9BW125, 4/5CR
- -121 -11.75 867.1MHz, SF9BW125, 4/5CR
2026-05-06 23:29:53 5.625°C 69.4375% 3.27V v3 No position 7916 ttn.v3 - -101 8 868.3MHz, SF9BW125, 4/5CR
2026-05-06 23:13:44 5.75°C 68.3125% 3.27V v3 No position 7915 ttn.v3 - -105 9.2 867.9MHz, SF9BW125, 4/5CR
2026-05-06 22:57:35 5.6875°C 63.6875% 3.27V v3 No position 7914 ttn.v3 - -101 1.5 868.1MHz, SF9BW125, 4/5CR
- -115 -9.75 868.1MHz, SF9BW125, 4/5CR
2026-05-06 22:41:27 5.75°C 69.375% 3.27V v3 No position 7913 ttn.v3 - -104 6 867.7MHz, SF9BW125, 4/5CR
2026-05-06 22:25:18 5.875°C 82.625% 3.27V v3 No position 7912 ttn.v3 - -107 6.2 868.5MHz, SF9BW125, 4/5CR
- -112 -1.25 868.5MHz, SF9BW125, 4/5CR
- -124 -9.75 868.5MHz, SF9BW125, 4/5CR
2026-05-06 22:09:09 5.8125°C 80% 3.27V v3 No position 7911 ttn.v3 - -101 4.8 867.5MHz, SF9BW125, 4/5CR
2026-05-06 21:53:00 5.8125°C 84.0625% 3.27V v3 No position 7910 ttn.v3 - -99 7.2 868.3MHz, SF9BW125, 4/5CR
2026-05-06 21:36:52 6°C 91.875% 3.27V v3 No position 7909 ttn.v3 - -97 0.8 867.3MHz, SF9BW125, 4/5CR
2026-05-06 21:20:43 6.375°C 107.312% 3.27V v3 No position 7908 ttn.v3 - -107 5.5 868.1MHz, SF9BW125, 4/5CR
2026-05-06 21:04:34 6.6875°C 118.25% 3.27V v3 No position 7907 ttn.v3 - -102 2 867.1MHz, SF9BW125, 4/5CR
- -117 -5.5 867.1MHz, SF9BW125, 4/5CR
- -119 -6 867.1MHz, SF9BW125, 4/5CR
2026-05-06 20:48:25 7.4375°C 7.9375% 3.27V v3 No position 7906 ttn.v3 - -102 -2 868.5MHz, SF9BW125, 4/5CR
2026-05-06 20:32:16 6.9375°C 2% 3.27V v3 No position 7905 ttn.v3 - -105 8.8 867.9MHz, SF9BW125, 4/5CR
2026-05-06 20:16:07 7.1875°C 4.5% 3.27V v3 No position 7904 ttn.v3 - -99 0.2 868.3MHz, SF9BW125, 4/5CR
2026-05-06 19:59:57 7.1875°C 4.4375% 3.27V v3 No position 7903 ttn.v3 - -103 8 867.7MHz, SF9BW125, 4/5CR
- -110 -11.5 867.7MHz, SF9BW125, 4/5CR
2026-05-06 19:43:48 8.0625°C 10.9375% 3.27V v3 No position 7902 ttn.v3 - -101 6.5 868.1MHz, SF9BW125, 4/5CR
2026-05-06 19:27:39 8.75°C 10.8125% 3.27V v3 No position 7901 ttn.v3 - -105 6.2 867.5MHz, SF9BW125, 4/5CR
2026-05-06 19:11:29 10.3125°C 8.6875% 3.27V v3 No position 7900 ttn.v3 - -104 6.8 868.5MHz, SF9BW125, 4/5CR
- -110 0 868.5MHz, SF9BW125, 4/5CR
2026-05-06 18:55:19 9.5625°C 12.375% 3.27V v3 No position 7899 ttn.v3 - -101 0.5 867.3MHz, SF9BW125, 4/5CR
- -120 -9.25 867.3MHz, SF9BW125, 4/5CR
2026-05-06 18:39:09 10°C 118.875% 3.27V v3 No position 7898 ttn.v3 - -99 -0.8 868.3MHz, SF9BW125, 4/5CR
2026-05-06 18:22:59 8.875°C 11.0625% 3.27V v3 No position 7897 ttn.v3 - -104 5.5 867.1MHz, SF9BW125, 4/5CR
- -120 -9.5 867.1MHz, SF9BW125, 4/5CR
2026-05-06 18:06:50 9.25°C -5.6875% 3.27V v3 No position 7896 ttn.v3 - -109 7.8 868.1MHz, SF9BW125, 4/5CR
2026-05-06 17:50:40 7.75°C 3.8125% 3.27V v3 No position 7895 ttn.v3 - -105 9.5 867.9MHz, SF9BW125, 4/5CR
2026-05-06 17:34:31 7.75°C 4.6875% 3.27V v3 No position 7894 ttn.v3 - -105 6.8 868.5MHz, SF9BW125, 4/5CR
- -112 -13.75 868.5MHz, SF9BW125, 4/5CR
2026-05-06 17:18:21 8.875°C 89.1875% 3.27V v3 No position 7893 ttn.v3 - -101 7.2 867.7MHz, SF9BW125, 4/5CR
- -112 -10.75 867.7MHz, SF9BW125, 4/5CR
2026-05-06 17:02:12 9.625°C 86.4375% 3.27V v3 No position 7892 ttn.v3 - -103 7.5 868.3MHz, SF9BW125, 4/5CR
2026-05-06 16:46:02 8.8125°C 85.9375% 3.27V v3 No position 7891 ttn.v3 - -105 6.2 867.5MHz, SF9BW125, 4/5CR
- -111 -7.25 867.5MHz, SF9BW125, 4/5CR
2026-05-06 16:29:53 7.625°C 6.8125% 3.27V v3 No position 7890 ttn.v3 - -99 6.2 868.1MHz, SF9BW125, 4/5CR
- -113 -9.75 868.1MHz, SF9BW125, 4/5CR
2026-05-06 16:13:43 7.375°C 11.875% 3.27V v3 No position 7889 ttn.v3 - -99 2.2 867.3MHz, SF9BW125, 4/5CR
2026-05-06 15:57:34 7.1875°C 11.625% 3.27V v3 No position 7888 ttn.v3 - -103 1.5 868.5MHz, SF9BW125, 4/5CR
- -120 -12.25 868.5MHz, SF9BW125, 4/5CR
2026-05-06 15:41:25 7.125°C 12.8125% 3.27V v3 No position 7887 ttn.v3 - -104 8 867.1MHz, SF9BW125, 4/5CR
- -119 -7 867.1MHz, SF9BW125, 4/5CR
2026-05-06 15:25:16 7.5°C 12% 3.27V v3 No position 7886 ttn.v3 - -103 5 868.3MHz, SF9BW125, 4/5CR
- -115 -6.25 868.3MHz, SF9BW125, 4/5CR

Message count: 200
Node count: 1

Messages per node

Number of messages in list aboveNodes
200

Statistics per gateway

GatewayNumber of messagesNumber of nodesNodes
1951
531
511
351
161
21

Filter by dataset